Location: Recife
(8.0585°S, 34.8848°W)
Time: 09:24:42
(UTC-03:00)

Courier 1B Rocket - Pass Details

Date: 19 April 2026
Orbit: 920 x 1201 km, 28.2° (Epoch: 13 May)

Event Time Altitude Azimuth Distance (km) Brightness Sun altitude
Rises 15:54:39 0° 284° (WNW) 4,090 10.0 18.7°
Reaches altitude 10° 16:00:26 10° 317° (NW) 3,113 8.8 17.3°
Maximum altitude 16:02:24 11° 332° (NNW) 3,025 8.3 16.8°
Drops below altitude 10° 16:04:20 10° 347° (NNW) 3,089 8.1 16.3°
Sets 16:10:02 0° 21° (NNE) 3,996 8.1 15.0°
